Printer-friendly version
Follow the MPC on Twitter Follow the MPC on Facebook The MPC blog
Minor Planet Center

MPEC 2007-C64 : 2007 CA27

The following Minor Planet Electronic Circular may be linked-to from your own Web pages, but must not otherwise be redistributed electronically.

A form allowing access to any MPEC is at the bottom of this page.


Read MPEC 2007-C63 Read MPEC 2007-C65


M.P.E.C. 2007-C64                                Issued 2007 Feb. 14, 16:55 UT

     The Minor Planet Electronic Circulars contain information on unusual
         minor planets and routine data on comets.  They are published
   on behalf of Commission 20 of the International Astronomical Union by the
          Minor Planet Center, Smithsonian Astrophysical Observatory,
                          Cambridge, MA 02138, U.S.A.

             Prepared using the Tamkin Foundation Computer Network

                              MPC@CFA.HARVARD.EDU
          URL http://cfa-www.harvard.edu/iau/mpc.html  ISSN 1523-6714

                                   2007 CA27

Observations:
     K07C27A* C2007 02 13.28980 09 24 48.02 +66 41 48.2          19.7 V EC064703
     K07C27A  C2007 02 13.29803 09 24 43.41 +66 42 18.1          20.4 V EC064703
     K07C27A  C2007 02 13.30624 09 24 39.02 +66 42 48.4          20.1 V EC064703
     K07C27A  C2007 02 13.31441 09 24 34.77 +66 43 18.0          20.1 V EC064703
     K07C27A  C2007 02 13.86876 09 19 50.91 +67 15 55.5          20.2 V EC064595
     K07C27A  C2007 02 13.87655 09 19 46.59 +67 16 23.1          20.6 V EC064595
     K07C27A  C2007 02 13.88433 09 19 42.44 +67 16 50.2          20.2 V EC064595
     K07C27A  C2007 02 13.88770 09 19 40.57 +67 17 02.5          19.8 R EC064473
     K07C27A  C2007 02 13.89212 09 19 38.21 +67 17 17.8          20.8 V EC064595
     K07C27A  C2007 02 13.89241 09 19 38.01 +67 17 18.9          19.9 R EC064473
     K07C27A  C2007 02 13.89603 09 19 36.03 +67 17 31.4          19.8 R EC064473
     K07C27A  C2007 02 13.90528 09 19 30.95 +67 18 03.0          19.7 R EC064473

Observer details:
473 Remanzacco.  Observers L. Donato, V. Gonano, E. Guido, V. Santini,
    G. Sostero.  0.45-m f/4.4 Newtonian reflector + CCD.
595 Farra d'Isonzo.  Observers L. Bittesini, G. Lombardi, E. Pettarin,
    F. Piani.  Measurers G. Lombardi, E. Pettarin.  0.40-m f/4.5 reflector
    + CCD.
703 Catalina Sky Survey.  Observer R. A. Kowalski.  Measurers E. C. Beshore,
    E. J. Christensen, G. J. Garradd, A. R. Gibbs, A. D. Grauer, R. E. Hill,
    R. A. Kowalski, S. M. Larson, R. H. McNaught.  0.68-m Schmidt + CCD.

Orbital elements:
2007 CA27                                                Earth MOID = 0.1479 AU
Epoch 2007 Apr. 10.0 TT = JDT 2454200.5                 MPC
M 257.01469              (2000.0)            P               Q
n   1.22683915     Peri.  196.64574     +0.71376919     +0.57099690
a   0.8641934      Node   121.35199     -0.57623259     +0.80792485
e   0.3530723      Incl.   28.35457     -0.39810745     -0.14567082
P   0.80           H   21.1           G   0.15           U   9
Residuals in seconds of arc
070213 703  0.4+  0.1-    070213 595  0.2+  0.1-    070213 595  0.3+  0.1+
070213 703  0.6-  0.2-    070213 595  0.3-  0.0     070213 473  0.0   0.3+
070213 703  0.4-  0.2+    070213 595  0.2+  0.2-    070213 473  0.1-  0.1+
070213 703  0.6+  0.1+    070213 473  0.1-  0.4+    070213 473  0.3-  0.6-

Ephemeris:
2007 CA27                a,e,i = 0.86, 0.35, 28                  q = 0.5591
Date    TT    R. A. (2000) Decl.     Delta      r     Elong.  Phase     V
2007 02 09    09 57.87   +61 30.0    0.247    1.169   133.1    38.0    19.9
2007 02 14    09 18.68   +67 23.3    0.272    1.167   125.6    43.4    20.3
2007 02 19    08 32.11   +71 05.6    0.301    1.163   118.6    48.2    20.6
2007 02 24    07 44.69   +73 02.2    0.332    1.157   112.3    52.3    20.9
2007 03 01    07 03.45   +73 47.3    0.364    1.149   106.7    55.6    21.2
2007 03 06    06 31.79   +73 51.9    0.396    1.140   101.7    58.5    21.5
2007 03 11    06 09.53   +73 37.1    0.426    1.128    97.1    60.9    21.7
2007 03 16    05 54.92   +73 15.3    0.455    1.115    92.9    63.0    21.9
2007 03 21    05 46.07   +72 52.8    0.482    1.099    89.0    64.9    22.0

Kyle E. Smalley              (C) Copyright 2007 MPC           M.P.E.C. 2007-C64

Read MPEC 2007-C63 Read MPEC 2007-C65


MPEC number:

Enter an MPEC number in one of the following forms:

  • 1997-B01 (the full form)
  • J97B01 (the packed version of the full form)
  • B01 (the abbreviated form)

Valid HTML 4.01!